Location: Barrio de Canyet
(41.4665°N, 2.2381°E)
Time: 08:39:36
(UTC+00:00)

SL-16 R/B - Pass Details

Date: 09 April 2020
Orbit: 842 x 846 km, 71.0° (Epoch: 03 June)

Event Time Altitude Azimuth Distance (km) Brightness Sun altitude
Rises 21:30:37 0° 349° (N) 3,412 6.2 -30.8°
Reaches altitude 10° 21:34:18 10° 13° (NNE) 2,474 5.0 -31.3°
Enters shadow 21:36:59 15° 41° (NE) 2,159 4.4 -31.6°
